Home   Weather   Monthey   Past weeks

Flag for Switzerland Past Weather in Monthey, Valais, Switzerland — Yesterday and Last 2 Weeks

Now
47 °F

Rain. Low clouds.


Feels Like: 43 °F
Forecast: 40 / 46 °F
Wind: 7 mph from North

Location: Aigle

Current Time: Apr 26, 2017 at 6:27:59 am

Latest Report: Apr 26, 2017 at 5:00 am


Visibility: 6 mi

Pressure: 29.71 "Hg

Humidity: 90%

Dew Point: 44 °F

Location of MontheyLocation

Past Weather in Monthey — Graph

°F

Monthey Temperature Yesterday

Maximum temperature yesterday: 59 °F (at 11:00 am)
Minimum temperature yesterday: 47 °F (at 5:00 am)
Average temperature yesterday: 51 °F

High & Low Weather Summary for the Past Weeks

 TemperatureHumidityPressure
High69 °F (Apr 13, 6:00 pm)99% (Apr 12, 5:00 am)30.52 "Hg (Apr 12, 5:00 am)
Low26 °F (Apr 20, 7:00 am)20% (Apr 18, 5:00 pm)29.70 "Hg (Apr 25, 10:00 pm)
Average50 °F62%30.14 "Hg
* Reported Apr 11 5:00 am — Apr 26 5:00 am, Monthey, Weather by CustomWeather, © 2017

Note: Actual official high and low records may vary slightly from our data, if they occured in-between our weather recording intervals... More about our weather records

Advertising

Monthey Weather History for the Previous 24 Hours

Scroll right to see more
 ConditionsComfort  
Time TempWeatherWind HumidityBarometerVisibility
5:00 am
Wed, Apr 26
47 °FRain. Low clouds.7 mph90%29.71 "Hg6 mi
4:00 am47 °FCool.6 mph89%29.72 "HgN/A
3:00 am48 °FCool.9 mph89%29.72 "HgN/A
2:00 am48 °FCool.2 mph99%29.74 "HgN/A
1:00 am48 °FCool.2 mph99%29.74 "HgN/A
12:00 am48 °FCool.2 mph98%29.74 "HgN/A
11:00 pm
Tue, Apr 25
49 °FCool.2 mph96%29.72 "HgN/A
10:00 pm49 °FCool.1 mph92%29.70 "HgN/A
9:00 pm48 °FCool.1 mph94%29.70 "HgN/A
8:00 pm49 °FRain. Low clouds.3 mph95%29.74 "Hg5 mi
7:00 pm49 °FCool.7 mph91%29.75 "HgN/A
6:00 pm50 °FCool.3 mph93%29.75 "HgN/A
5:00 pm51 °FLight rain. Overcast.7 mph89%29.77 "Hg6 mi
4:00 pm51 °FCool.7 mph86%29.80 "HgN/A
3:00 pm52 °FCool.12 mph76%29.83 "HgN/A
2:00 pm53 °FRain. Overcast.9 mph74%29.83 "Hg8 mi
1:00 pm53 °FCool.10 mph78%29.81 "HgN/A
12:00 pm55 °FCool.12 mph70%29.78 "HgN/A
11:00 am59 °FPartly sunny.7 mph59%29.78 "Hg19 mi
10:00 am55 °FCool.10 mph69%29.81 "HgN/A
9:00 am56 °FCool.8 mph68%29.80 "HgN/A
8:00 am51 °FPartly sunny.2 mph79%29.81 "Hg19 mi
7:00 am48 °FCool.1 mph83%29.83 "HgN/A
6:00 am47 °FCool.2 mph87%29.83 "HgN/A
Weather by CustomWeather, © 2017

See weather overviewHow to use our weather pages